GFSSE_con_sbcape_132.txt.gz
CAPE
1178 2096 1714 1808 1758 1772 1799 1839 2167 2289 2337 2395 2354 2401 2443 2486 2253 2319 2544 2606 2797 2857 2660 2018 1950 1956 1913 1876 2078 1914 1724 1940 2362 2456 2313 1997 2025 2074 2047 2151 1977 1513 1836
1546 2271 1682 1722 1768 1855 1906 1923 2155 2527 2658 2583 2444 2458 2487 2524 2304 2399 2613 2629 2822 2932 2633 2166 1840 1874 1785 1648 1978 1848 1741 1824 2140 2305 2403 2225 2001 1973 1976 1846 1674 1540 2210
2163 2151 2279 1740 1792 1876 1976 2086 2338 2800 2870 2801 2609 2562 2588 2572 2435 2418 2525 2525 2807 3045 3015 2438 2207 1672 1518 1627 1661 1707 1719 1746 2014 2232 2398 1795 1763 1960 1861 1646 1923 2143 2102
2431 2286 2514 1859 1887 1881 1915 2026 2297 2924 3044 3005 2787 2661 2682 2659 2595 2564 2481 2433 2729 3123 3174 2499 2393 2099 1654 1417 1479 1518 1598 1652 1756 2089 1822 1423 1622 1855 1997 1644 1748 1827 2076
2449 2451 2707 1965 1909 1914 1847 1987 2178 2556 2819 2933 2897 2869 2791 2775 2767 2753 2490 2483 2822 3264 3038 2566 2769 2704 1610 1055 1190 1357 1462 1474 1598 1554 1631 1518 1572 1799 1949 1732 1569 1774 1749
2795 2623 1883 1875 1930 2006 1962 1977 2139 2180 2295 2591 2740 2983 2967 2880 2933 2823 2490 2604 3018 3405 2983 2962 3004 2645 1564 1108 991 1217 1316 1300 1215 1625 1613 1659 1751 1869 1668 2119 1733 1814 1769
2608 2819 2816 1859 1943 2068 2174 2113 2046 2015 1934 2184 2548 2800 2953 3020 2999 2764 2474 2607 2947 3173 2962 3038 2870 2328 1577 1221 1159 1106 1084 1133 1382 1565 1559 1609 1780 1839 1595 1946 1760 1440 1631
2793 2961 2870 1963 1861 1979 2090 2034 1959 1836 1808 1858 2141 2538 2815 2884 2812 2635 2457 2628 2841 2889 2878 2754 2475 2085 1445 1262 1284 985 904 839 1199 1572 1566 1628 1640 1730 1758 2040 1907 1585 1635
2974 3243 3234 3194 2670 1694 1835 1891 1873 1875 1755 1749 1784 2034 2388 2550 2549 2463 2422 2574 2698 2707 2655 2519 2292 1783 1448 1353 1145 922 814 824 1508 1456 1508 1641 1381 1272 1530 2122 1959 1758 1592
2314 3167 3581 3594 3455 3358 3290 1826 1706 1770 1800 1675 1700 1710 1879 2165 2252 2204 2197 2341 2546 2454 2376 2353 2180 1752 1541 1344 1057 846 739 667 1275 1429 1609 1439 1343 1328 1385 2183 2111 1792 1706
613 2178 3275 3714 3636 3647 3523 3013 1824 1548 1579 1629 1644 1628 1705 2132 2225 2319 2074 1926 2244 2243 2143 2203 2087 1796 1620 1352 1057 804 595 1324 1332 1505 1364 489 642 1250 1572 2198 2045 1870 1727
0 50 2435 3383 3684 3697 3186 3210 3304 3192 3001 2875 2746 2683 2586 2362 2303 2016 1801 1681 1890 1896 1456 1527 1798 1558 1412 1451 1393 701 1385 1264 1431 1500 1451 579 473 1000 1358 1755 1823 1954 1754
0 0 73 2444 3461 3607 3330 3299 3313 3169 3116 3020 3137 3061 2868 2662 2679 2468 2378 2405 2423 1615 2334 1717 1925 2084 1703 1604 1387 1413 1279 1444 1413 1331 1230 589 527 1115 1306 1648 1923 1995 1659
0 17 93 969 2167 2900 3295 2874 3026 2628 2491 2550 2636 2708 3055 2890 2646 2619 2318 2548 2260 2252 2220 2355 2326 2190 2045 2081 2001 1844 1774 1578 1265 1259 1375 737 274 894 1268 1520 1977 1935 1815
0 0 0 0 75 1315 1502 2135 2799 2538 2429 2216 2318 2144 2456 2541 2707 2504 2418 2171 2145 2392 2417 2331 2289 2354 2454 2328 2200 2051 1935 1821 1635 1372 1360 750 215 385 973 1293 1609 1968 1915
0 0 0 0 0 0 0 196 1266 1704 1889 1879 1731 1593 1800 2136 2284 2145 2472 2443 2423 2357 2401 2409 2165 2144 2311 2087 1881 1996 1994 1958 1744 1699 1485 1332 454 101 396 905 1372 1939 2332
0 0 0 0 0 0 0 0 1 9 10 7 7 2 0 0 4 1609 2069 2018 2123 2351 2352 2119 2143 2011 1924 2066 2077 2105 2020 2194 1994 1870 1816 1677 1083 207 34 205 846 1581 2171
0 0 0 0 0 0 0 0 0 1 0 0 0 0 0 0 0 0 225 1392 1524 1723 1503 1497 1848 1902 1692 2036 1930 1959 1968 2082 2024 2002 1893 1779 1664 1283 165 43 97 806 1154
0 0 0 0 0 0 0 0 0 0 0 0 0 0 0 0 0 0 1 2 0 512 975 1250 1504 1692 1386 1366 1584 1735 1987 1968 1912 1736 1629 1760 1804 1620 1334 331 37 122 273
0 0 0 0 0 0 0 0 0 0 0 0 0 0 0 0 0 0 0 0 0 5 263 788 1113 1288 869 484 694 1314 1191 1524 1917 1606 1748 1441 1646 1700 1817 1415 921 565 0
0 0 0 0 0 0 0 0 0 0 0 0 0 0 0 0 0 0 0 0 0 0 4 3 35 607 997 641 406 563 132 24 1280 1448 1613 1465 1438 1628 1762 1662 1848 1529 476
0 0 0 0 0 0 0 0 0 0 0 0 0 0 0 0 0 0 0 0 0 0 0 3 9 8 180 513 623 602 316 236 1193 1064 1707 1475 1529 1438 1506 1564 1362 1508 1396
0 0 0 0 0 0 0 0 0 0 0 0 0 0 0 0 0 0 0 0 1 0 0 1 1 7 15 12 247 528 373 357 622 1455 1134 1370 1385 1289 1200 1175 1102 1125 1242
0 0 0 0 0 0 0 0 0 0 0 0 0 0 0 0 0 1 3 4 3 2 1 2 0 3 8 11 10 13 485 779 469 588 466 782 964 566 717 452 370 396 312
0 0 0 0 0 0 0 0 0 0 0 0 0 0 0 0 0 1 6 10 7 8 5 10 14 10 8 2 9 20 5 495 1066 647 193 263 220 77 101 126 186 252 296
0 0 0 0 0 0 0 2 4 4 2 0 2 1 0 0 1 3 6 10 8 9 9 8 8 11 5 7 7 14 17 5 209 463 432 273 199 235 129 133 211 100 115

GFSSE_con_sbcape_135.txt.gz
CAPE
1978 1983 1771 1980 2054 2141 2239 2304 2255 2182 2330 2433 2482 2587 2587 2603 2481 2487 2632 2665 2827 2916 2450 2150 2249 2403 2307 2155 2100 1827 1709 2106 2533 2284 2215 2046 2109 2077 2066 2164 1982 1497 2111
2034 2129 1578 1836 2043 2185 2267 2373 2400 2448 2527 2610 2595 2657 2682 2608 2488 2545 2710 2727 2962 3115 2484 2200 2152 2078 1993 2074 2130 1901 1635 2046 2356 2409 2436 2078 2210 2037 1914 1742 1711 1660 2255
2042 2527 2021 1650 1946 2146 2315 2460 2654 2800 2852 2788 2722 2697 2783 2717 2539 2620 2696 2754 3106 3093 2658 2110 2028 2032 1793 1804 1893 1760 1700 1890 2215 2344 2457 1691 1735 2023 1796 1586 1935 2193 2186
2497 2746 2314 1692 1803 2011 2132 2350 2737 3109 3161 2975 2831 2806 2819 2815 2632 2667 2668 2641 3062 3237 3081 2493 2196 1749 1729 1607 1555 1639 1666 1740 1972 2140 1811 1948 1775 1998 1772 1708 1778 1996 2030
2373 2696 2852 1919 1787 1863 2009 2175 2538 3060 3129 3017 2879 2947 2952 2933 2857 2781 2611 2592 3051 3434 3392 2652 2597 2631 1514 1168 1243 1349 1425 1573 1625 1515 1927 1727 1693 1983 1965 1669 1672 1841 1855
2385 3012 2016 1958 1929 1864 1882 2043 2244 2563 2761 2859 2909 2991 3048 3051 3018 2925 2570 2622 3071 3517 3386 3106 3076 2762 1525 950 949 1155 1247 1334 1252 1259 1439 1634 1899 2004 2053 2106 1862 1749 1592
2039 3181 2950 1924 1972 2049 2017 2029 2111 2160 2297 2621 2824 3010 3034 3033 3051 2896 2580 2636 3022 3494 3359 2974 2894 2592 1821 1208 1008 992 1095 1162 1236 1325 1498 1797 1963 2425 1726 1939 2002 1722 1791
1731 2770 3307 2060 2090 2142 2190 2109 1994 1947 1962 2114 2490 2797 3040 3027 2933 2810 2599 2574 2770 3082 3001 2790 2675 2456 1967 1384 1174 999 930 854 1008 1491 1023 1371 1600 2094 1690 2061 1883 1634 1729
1459 2113 2917 3719 2640 1906 2008 2009 1941 1948 1870 1886 1970 2312 2724 2826 2616 2510 2551 2565 2700 2730 2832 2753 2488 2230 1807 1346 1206 1019 750 763 1076 1405 1259 1383 2085 2326 1955 2117 1997 1800 1715
305 1464 2401 3383 4003 3794 3254 1867 1869 1867 1854 1722 1790 1837 2074 2365 2439 2259 2343 2294 2340 2384 2497 2534 2408 2159 1618 1359 1175 937 742 674 999 1078 1086 1009 1846 1929 1829 2136 2428 1966 1766
0 362 1300 2708 3298 4113 4153 3407 1761 1679 1777 1735 1724 1609 1693 2075 2210 2510 2393 2153 2197 2142 2188 2270 2214 2021 1599 1407 1215 950 693 1190 1069 1119 705 1189 1880 1595 1568 2011 2229 2020 1836
0 0 197 1926 2752 3388 3351 3601 3806 3644 3255 2957 2726 2709 2496 2226 2018 2019 1871 1843 2019 1940 1810 1851 2024 1832 1538 1753 1552 956 1259 1028 1038 839 1026 792 1459 1253 1599 2180 2115 2025 1703
0 161 305 903 2436 2787 2441 2466 2504 2333 3013 3241 3496 3538 3082 3228 2847 2652 2928 2640 2281 1604 2100 1624 1871 2298 1974 1741 1383 1682 1497 1094 1048 702 581 624 1152 1064 1360 1941 1951 1812 1750
0 0 0 0 400 1398 2780 3176 3366 3222 3034 2837 3131 3005 3144 3494 3178 2917 2802 2607 2892 2566 2051 2140 2166 2110 2029 1899 1728 2177 1938 1338 947 712 734 494 734 1253 1411 1571 1942 2174 2001
0 0 0 0 1 305 637 838 2042 2745 2687 2349 2234 1979 2202 2702 2847 2832 3049 2652 2512 2715 2420 2454 2445 2228 2207 2417 2226 2314 2028 2100 1720 1159 1084 725 591 787 1232 1442 1585 2002 2288
0 0 0 0 0 2 74 51 132 98 107 101 15 2 1 2 2 591 2607 2482 2895 2591 2782 2295 2187 2031 2061 2197 1975 2138 2187 2323 1972 2280 1648 1302 620 428 687 1434 1691 1880 2296
0 0 0 0 0 0 1 1 2 1 0 1 0 0 0 0 0 0 145 1806 1777 2038 1924 1628 955 1645 2209 2085 1664 1971 2127 2283 2106 1883 1996 1865 926 194 238 423 1143 1592 1901
0 0 0 0 0 0 0 0 0 0 0 0 0 0 0 0 0 0 7 184 28 2 980 992 351 270 445 1055 1247 1953 2020 2190 2161 2169 2226 1893 1979 1791 207 151 253 739 1073
0 0 0 0 0 0 0 0 0 0 0 0 0 0 0 0 0 0 0 2 2 3 94 992 1349 1315 1366 1595 936 1370 1915 1949 2031 1790 1729 1922 2016 1980 1972 417 54 147 392
0 0 0 0 0 0 0 0 0 0 0 0 0 0 0 0 0 0 0 0 0 0 2 57 270 499 1326 1403 1296 1263 1408 1518 1810 2019 1681 1554 1787 2048 1958 2098 980 398 75
0 0 0 0 0 0 0 0 0 0 0 0 0 0 0 0 0 0 0 0 0 0 0 0 11 81 123 732 554 676 1107 1218 1150 1440 2124 1836 1415 1609 1810 1769 1800 1755 549
0 0 0 0 0 0 0 0 0 0 0 0 0 0 0 0 0 0 0 0 0 0 0 0 3 18 47 112 334 384 491 718 1008 1078 587 123 7 797 1213 1462 1564 2017 1795
0 0 0 0 0 0 0 0 0 0 0 0 0 0 0 0 0 0 0 1 2 0 0 1 1 4 1 10 79 169 354 278 411 788 141 271 117 966 1409 1625 1478 1709 1908
0 0 0 0 0 0 0 0 0 0 0 0 0 0 0 0 0 0 0 2 2 2 2 1 1 5 7 1 0 4 171 264 182 347 768 892 1003 1122 1412 1609 1567 1443 1591
0 0 0 0 0 0 0 0 0 0 0 0 0 0 0 0 0 0 4 5 6 7 7 10 12 11 9 6 2 1 7 27 42 465 362 437 673 1074 1216 1287 1205 1010 1026
0 0 0 0 0 0 0 0 0 0 0 0 1 0 0 0 1 3 5 7 8 8 12 9 8 5 3 3 10 9 4 16 3 106 301 395 410 379 854 1009 1030 627 237

GFSSE_con_sbcape_138.txt.gz
CAPE
1962 1650 1871 2142 2240 2455 2416 2081 2011 2155 2336 2455 2487 2421 2380 2509 2411 2466 2585 2704 2717 2629 2546 2461 2429 2362 2217 2099 2094 1841 2020 2292 2231 2186 2205 2219 2041 2026 1910 2094 1771 1675 2154
2253 1829 1607 1953 2172 2398 2503 2209 2044 2217 2470 2593 2610 2668 2605 2609 2473 2540 2643 2742 2915 2902 2600 2405 2490 2535 2151 2491 1973 1664 1807 2017 2105 2154 2281 2281 2054 1969 1802 1736 1486 1718 2179
2495 2225 1645 1811 2121 2317 2534 2510 2418 2514 2658 2697 2684 2737 2704 2679 2551 2586 2648 2729 3079 3103 2748 2276 2191 2085 1936 2070 1618 1539 1660 1836 1951 2148 2330 1696 1705 2069 1668 2008 1874 2121 2188
2778 2638 2134 1778 2028 2216 2350 2567 2689 2843 2877 2794 2785 2781 2854 2813 2642 2667 2634 2647 3105 3223 2973 2198 2070 1977 1856 1526 1437 1398 1518 1575 1705 1920 1696 1426 1306 2049 1760 2126 2267 2287 2180
2803 2914 2022 1712 1910 2105 2200 2477 2767 3024 2976 2858 2807 2921 2935 3002 2828 2815 2648 2602 3105 3438 3231 2554 2585 2303 1397 1104 1139 1164 1269 1319 1246 1360 995 903 162 1431 1945 2131 2190 2233 1830
3522 3066 1619 1674 1773 1988 2100 2230 2617 2897 2895 2840 2774 2947 3037 3092 3019 2873 2588 2620 3119 3435 3158 3175 2978 2699 1397 819 809 911 977 1084 1023 660 703 1080 970 1961 1993 2043 1745 1700 1596
3105 3414 2328 1845 1854 1856 1972 2129 2185 2357 2604 2756 2829 2909 2998 3093 3068 2873 2518 2569 2866 3284 3296 3049 2873 2642 1893 1037 800 733 787 869 733 686 1231 920 1638 1923 2008 2095 1780 1676 1606
2350 3745 2483 2051 2096 2066 2025 1941 1947 2017 2113 2467 2718 2887 3030 2958 2891 2811 2556 2466 2607 2848 3136 2905 2518 2554 2151 1412 1076 773 699 637 537 556 1005 1163 1657 2055 2185 2208 1741 1569 1653
2500 3242 3908 3146 2387 1990 2010 1972 1853 1822 1856 1944 2240 2605 2870 2865 2736 2678 2608 2479 2483 2576 2632 2835 2505 2470 2198 1653 1119 867 696 603 459 478 999 955 1497 1875 1956 2188 1803 1612 1689
1173 3331 2829 4178 3585 3169 2763 1936 1856 1805 1765 1691 1753 1898 2276 2572 2606 2441 2405 2368 2396 2409 2303 2519 2528 2367 2094 1600 1010 894 765 597 447 536 682 1145 1464 2013 2095 2307 1950 1843 1682
62 727 1135 1592 3224 4190 4601 3000 1825 1784 1820 1741 1580 1576 1661 2065 2394 2691 2487 2386 2190 2173 2048 2184 2262 2210 1935 1409 1037 910 753 658 660 696 678 1064 1708 2287 2653 2386 1886 1797 1648
65 78 32 98 936 2048 2821 2669 3328 2989 2377 2379 2399 2636 2024 2167 2057 1913 2145 2158 1853 1861 1822 1853 1959 1839 1536 1494 1036 907 799 835 720 690 929 1316 1920 2488 2316 2074 2047 1867 1601
0 0 0 0 51 1174 1593 2442 2558 2282 2410 2824 2629 2779 2806 2702 2581 2330 2008 1475 1596 1532 1914 1541 1535 1555 1705 1448 1239 1119 910 831 744 604 667 1069 1823 2343 1969 2286 2289 2079 1653
0 0 0 0 0 81 824 850 855 1794 2418 2104 1379 217 1860 2509 2605 2253 1806 1556 1393 1409 1685 1681 1361 1388 1438 1458 1463 1165 1070 941 733 694 331 728 1139 1881 1849 1859 2107 2063 1768
0 0 0 0 0 0 140 162 297 72 49 30 2 1 0 2 2 229 1607 1964 1528 1598 1370 1303 1146 1251 1293 1415 1495 1130 1393 1394 990 1006 382 378 855 1401 1979 1822 1776 2050 2185
0 0 0 0 0 0 4 47 1 0 0 0 0 0 0 0 0 0 8 533 1153 748 1278 1146 983 857 493 331 463 1317 1525 1669 1771 1449 1512 219 447 812 1268 1771 2033 2258 2444
0 0 0 0 0 0 0 0 5 0 0 0 0 0 0 0 0 0 0 81 82 14 53 236 355 184 1 0 41 52 814 1137 1494 1598 1658 1493 235 260 643 978 1317 1729 2084
0 0 0 0 0 0 0 0 0 0 0 0 0 0 0 0 0 0 0 2 0 0 141 252 467 431 0 14 0 0 273 840 986 1135 1506 1569 1264 646 81 324 615 918 1300
0 0 0 0 0 0 0 0 0 0 0 0 0 0 0 0 0 0 0 0 0 0 1 11 3 71 366 114 28 197 282 713 892 921 1004 1257 1444 1217 1015 96 102 291 519
0 0 0 0 0 0 0 0 0 0 0 0 0 0 0 0 0 0 0 0 0 0 0 0 0 19 70 59 559 673 773 865 869 932 1046 1124 1239 1167 1104 1118 75 21 37
0 0 0 0 0 0 0 0 0 0 0 0 0 0 0 0 0 0 0 0 0 0 0 0 0 0 0 45 86 363 385 427 577 769 809 877 964 982 884 1299 999 288 50
0 0 0 0 0 0 0 0 0 0 0 0 0 0 0 0 0 0 0 0 0 0 0 0 0 0 0 0 95 114 139 156 408 505 486 523 547 866 1025 918 980 1136 946
0 0 0 0 0 0 0 0 0 0 0 0 0 0 0 0 0 0 0 0 0 0 0 0 0 0 0 0 0 54 107 153 85 173 421 526 397 203 125 114 432 708 972
0 0 0 0 0 0 0 0 0 0 0 0 0 0 0 0 0 0 0 0 0 0 1 1 3 1 0 1 0 0 8 41 54 4 22 10 286 243 95 227 526 550 632
0 0 0 0 0 0 0 0 0 0 0 0 0 0 0 0 0 0 0 0 0 3 5 2 2 2 1 0 3 2 0 0 0 4 0 0 1 341 475 530 549 564 602
0 0 0 0 0 0 0 0 0 0 0 0 0 0 0 0 0 0 3 6 9 7 7 9 2 10 9 8 5 0 0 5 0 0 0 0 0 0 39 230 566 661 645

GFSSE_con_sbcape_141.txt.gz
CAPE
1439 1693 1922 2200 2343 2186 1923 1848 1844 1967 2080 2228 2240 2344 2350 2233 2242 2392 2456 2371 2438 2625 2319 2105 2391 2225 2012 2029 1805 1716 1982 1978 1989 2200 2274 2347 1861 1922 2126 2261 2007 1748 2205
1455 1665 1792 2008 2308 2400 2093 1859 1875 2051 2273 2371 2387 2443 2447 2318 2210 2417 2479 2487 2494 2652 2303 2285 2429 2419 2251 2161 1507 1349 1671 1761 1818 1980 2310 2189 2006 1718 1661 1675 1939 1977 2180
1601 1555 1756 1895 2158 2357 2317 2096 2089 2275 2440 2461 2486 2502 2525 2460 2302 2400 2414 2538 2768 2728 2413 2268 2208 2105 2178 1792 1268 1231 1383 1551 1744 1960 2150 1633 1751 1853 1505 1990 2099 2188 2153
1626 1430 1623 1810 2030 2261 2349 2295 2280 2489 2570 2516 2547 2598 2595 2581 2434 2419 2408 2474 2890 2951 2604 2204 2169 2087 1877 1425 1146 1102 1185 1266 1551 1721 1611 1396 1263 2035 1808 2063 2284 2251 2196
1947 1861 1647 1696 1867 2126 2318 2408 2451 2540 2481 2471 2528 2686 2747 2737 2612 2565 2424 2386 2881 3218 2899 2216 2168 2127 1400 980 977 953 1022 1018 1003 1153 810 494 984 2081 1922 2323 2123 2243 1976
2208 1657 1444 1559 1726 1970 2167 2459 2621 2646 2477 2436 2476 2695 2831 2912 2806 2650 2383 2451 2909 3308 3278 3006 2937 2300 1077 698 764 783 748 784 827 432 417 715 0 1957 1963 2083 2027 1806 1615
2339 1725 1623 1505 1592 1821 2015 2130 2344 2541 2590 2602 2536 2605 2738 2846 2814 2560 2308 2405 2671 3037 3107 2850 2634 2546 1894 852 694 649 557 589 624 423 245 720 741 1760 1924 2066 1782 1723 1674
2719 1976 1838 1910 1847 1732 1687 1720 1805 1956 2259 2569 2650 2661 2769 2775 2696 2600 2309 2225 2359 2583 2792 2687 2415 2361 2268 1516 937 685 503 417 587 382 596 247 550 1702 2355 1998 1740 1473 1629
2454 2619 2010 1971 2009 1880 1803 1737 1667 1710 1812 2029 2389 2579 2770 2703 2575 2563 2473 2246 2217 2284 2435 2634 2632 2253 2242 1977 1354 968 675 473 427 311 481 717 1118 1722 2273 1821 1850 1568 1587
0 0 0 868 2145 1902 1600 1860 1840 1763 1652 1579 1659 1891 2328 2427 2500 2448 2404 2350 2238 2191 2228 2327 2601 2366 2165 2039 1604 1075 768 625 491 262 336 716 1397 2016 2301 1976 1944 1702 1627
0 0 0 0 23 662 1998 2243 1681 1720 1685 1623 1608 1607 1555 1626 2104 2158 2183 2159 2171 2158 2109 2116 2152 2010 2041 1884 1592 1043 743 558 433 329 238 603 1355 2534 2336 1990 1739 1696 1641
0 0 0 0 0 19 1067 1097 1947 1739 1419 1461 1624 1753 1372 1461 1440 1740 2007 1709 1853 1655 1870 1841 1768 1767 1336 1560 1207 883 655 574 550 572 419 557 1541 2268 2310 2084 1735 1641 1647
0 0 0 0 0 0 136 208 191 841 960 1251 37 80 1464 1813 1746 1656 1453 1117 1245 1190 1287 1470 1411 1198 1372 1424 1204 740 705 668 584 526 562 831 1564 2125 2287 1917 1985 1901 1674
0 0 0 0 0 0 0 63 62 49 30 1 0 0 0 1 0 0 128 653 785 767 1211 1173 1316 1226 1173 1251 1170 798 711 709 721 525 395 924 1514 2240 2318 2132 2321 2191 1820
0 0 0 0 0 0 0 0 0 0 0 0 0 0 0 0 0 0 0 12 198 0 89 189 349 391 692 573 27 0 4 0 510 508 358 624 1249 1775 2085 2277 2416 2379 2109
0 0 0 0 0 0 0 0 0 0 0 0 0 0 0 0 0 0 0 0 23 0 3 109 255 1 1 1 0 62 0 31 603 723 248 350 742 1240 1778 1953 2261 2443 2301
0 0 0 0 0 0 0 0 0 0 0 0 0 0 0 0 0 0 0 0 0 0 0 3 67 99 0 1 0 1 0 23 486 460 58 184 261 281 790 1592 2013 2223 2267
0 0 0 0 0 0 0 0 0 0 0 0 0 0 0 0 0 0 0 0 0 0 0 0 0 8 7 0 0 0 0 40 44 201 382 455 411 440 99 233 956 1601 1816
0 0 0 0 0 0 0 0 0 0 0 0 0 0 0 0 0 0 0 0 0 0 0 0 0 0 4 46 1 0 0 0 21 381 313 520 776 752 480 134 83 376 908
0 0 0 0 0 0 0 0 0 0 0 0 0 0 0 0 0 0 0 0 0 0 0 0 0 0 0 0 17 43 174 241 178 238 356 496 811 972 860 615 110 1 24
0 0 0 0 0 0 0 0 0 0 0 0 0 0 0 0 0 0 0 0 0 0 0 0 0 0 0 0 0 9 42 159 216 357 468 507 529 676 771 786 492 93 54
0 0 0 0 0 0 0 0 0 0 0 0 0 0 0 0 0 0 0 0 0 0 0 0 0 0 0 0 0 0 19 33 44 187 349 566 605 600 638 617 435 325 281
0 0 0 0 0 0 0 0 0 0 0 0 0 0 0 0 0 0 0 0 0 0 0 0 0 0 0 0 0 0 2 34 0 3 51 119 303 262 239 228 303 371 323
0 0 0 0 0 0 0 0 0 0 0 0 0 0 0 0 0 0 0 0 0 0 1 0 2 2 1 0 0 0 0 1 9 0 0 0 0 5 69 36 26 15 8
0 0 0 0 0 0 0 0 0 0 0 0 0 0 0 0 0 0 0 0 0 1 3 5 1 2 3 8 4 0 0 0 0 8 0 0 0 0 0 31 134 180 300
0 0 0 0 0 0 0 0 0 0 0 0 0 0 0 0 0 0 0 1 0 2 4 7 6 4 4 7 9 6 8 4 3 3 5 0 0 0 0 0 0 0 161

GFSSE_con_sbcape_144.txt.gz
CAPE
1413 1760 2043 2130 1960 1813 1748 1759 1794 1867 2072 2216 2266 2290 2253 2433 2441 2380 2385 2438 2597 2820 2418 2159 2317 2091 2009 1974 1737 2000 1879 1894 2101 2379 2358 2220 1915 2059 2033 2173 1969 1792 2155
1483 1688 1881 2107 2082 1983 1908 1809 1873 2018 2248 2335 2369 2343 2248 2302 2437 2442 2331 2314 2589 2775 2257 2296 2418 2431 2390 2107 1488 1626 1722 1632 1779 2107 2354 2096 1927 2068 2141 2063 1897 1966 2264
1523 1667 1829 2019 2182 2071 2046 2013 2111 2327 2423 2458 2443 2396 2351 2288 2442 2407 2352 2328 2462 2812 2455 2446 2502 2403 2516 1682 1119 1210 1419 1521 1648 2024 2086 1624 1691 1970 1778 1960 2082 2270 2244
1414 1537 1710 1907 2135 2177 1984 2005 2148 2505 2539 2478 2504 2503 2507 2386 2331 2437 2328 2360 2629 2812 2417 2373 2340 2262 2009 1360 963 1004 1085 1231 1474 1620 1065 1507 1449 2001 1889 2128 2121 2070 2177
1351 1398 1704 1769 2014 2203 2156 2046 2109 2319 2334 2356 2389 2589 2648 2598 2479 2471 2333 2340 2779 2990 2610 2312 2350 2421 1394 967 839 797 958 935 976 1186 1057 575 763 1431 1835 2120 2244 2253 2136
1740 1479 1548 1698 1887 2152 2277 2299 2319 2240 2129 2169 2298 2544 2743 2799 2693 2495 2275 2382 2840 3142 3060 2858 2759 2092 1145 734 642 655 661 742 786 469 464 619 441 1587 1903 2332 2068 2013 1889
1778 1443 1442 1581 1710 1872 2066 2340 2498 2533 2454 2402 2366 2470 2614 2818 2812 2508 2212 2274 2603 3010 3340 3217 2809 2573 1775 827 642 577 471 461 503 290 525 506 8 1656 1934 2001 2123 1846 1895
1802 1670 1734 1747 1584 1564 1719 1822 1912 2116 2360 2529 2555 2511 2606 2701 2672 2603 2315 2178 2269 2460 2704 2731 2582 2358 2377 1755 928 564 426 331 447 313 408 236 432 1037 2337 2052 1866 1647 1726
0 2 119 431 1384 1768 1636 1529 1523 1651 1800 2112 2419 2511 2571 2630 2609 2571 2551 2307 2165 2185 2293 2527 2476 2372 2241 2196 1644 971 664 511 268 209 288 490 728 1334 2214 1574 1740 1656 1691
0 0 0 0 8 1047 1630 1742 1621 1575 1571 1602 1692 1884 2216 2460 2319 2223 2161 2211 2303 2118 2052 2170 2241 2358 2211 2023 1938 1449 949 666 276 216 250 224 1018 1580 2297 1963 1793 1700 1747
0 0 0 0 0 189 804 1658 1606 1552 1644 1571 1459 1492 1434 1458 1743 1934 1891 1756 1658 1819 1805 1783 1869 1916 1702 1834 1761 1531 1000 457 267 200 223 251 579 2106 2124 1923 1813 1767 1745
0 0 0 0 0 6 313 246 329 1525 597 30 3 79 1266 1489 1545 1461 1256 842 826 987 1046 1270 1434 1294 898 1270 1356 964 749 441 322 279 172 273 707 1922 2332 1796 1812 1806 1703
0 0 0 0 0 0 3 19 113 77 3 1 0 0 1 7 9 85 96 271 517 352 731 741 788 911 987 960 1137 242 206 232 292 403 357 378 678 1982 2222 1840 2001 1957 1737
0 0 0 0 0 0 0 0 0 2 0 0 0 0 0 0 0 0 0 10 36 0 0 33 73 160 167 932 13 0 2 2 1 220 496 186 356 1512 1900 2157 2229 1977 1820
0 0 0 0 0 0 0 0 0 0 0 0 0 0 0 0 0 0 0 2 0 0 0 1 4 28 7 41 8 18 3 0 0 92 521 276 227 885 1728 2091 2323 2005 1755
0 0 0 0 0 0 0 0 0 0 0 0 0 0 0 0 0 0 0 0 0 0 0 0 0 125 8 0 1 0 0 0 0 6 528 369 235 196 1054 1552 1867 2237 2343
0 0 0 0 0 0 0 0 0 0 0 0 0 0 0 0 0 0 0 0 0 0 0 0 0 0 4 0 0 0 0 0 0 18 276 409 223 195 103 546 1171 1437 1936
0 0 0 0 0 0 0 0 0 0 0 0 0 0 0 0 0 0 0 0 0 0 0 0 0 0 0 0 0 0 0 3 0 2 291 285 176 190 268 75 76 583 891
0 0 0 0 0 0 0 0 0 0 0 0 0 0 0 0 0 0 0 0 0 0 0 0 0 0 0 0 0 0 0 0 0 4 38 131 251 226 245 306 154 108 407
0 0 0 0 0 0 0 0 0 0 0 0 0 0 0 0 0 0 0 0 0 0 0 0 0 0 0 0 0 0 0 14 25 24 11 122 204 286 467 477 194 50 3
0 0 0 0 0 0 0 0 0 0 0 0 0 0 0 0 0 0 0 0 0 0 0 0 0 0 0 0 0 0 0 0 49 202 277 260 222 449 608 644 395 270 44
0 0 0 0 0 0 0 0 0 0 0 0 0 0 0 0 0 0 0 0 0 0 0 0 0 0 0 0 0 1 0 0 0 0 49 140 282 299 396 476 509 451 303
0 0 0 0 0 0 0 0 0 0 0 0 0 0 0 0 0 0 0 0 0 0 0 0 0 0 0 0 0 1 2 0 0 0 0 0 27 20 35 127 261 292 277
0 0 0 0 0 0 0 0 0 0 0 0 0 0 0 0 0 0 0 0 0 0 2 3 1 1 1 1 0 0 1 1 11 0 0 0 0 0 0 0 6 45 71
0 0 0 0 0 0 0 0 0 0 0 0 0 0 0 0 0 0 0 0 0 0 3 1 3 4 1 2 6 8 1 0 0 9 1 0 0 0 0 0 0 0 6
0 0 0 0 0 0 0 0 0 0 0 0 0 0 0 0 0 0 0 0 0 0 0 0 6 5 5 1 2 2 6 4 3 6 5 1 0 0 0 0 0 0 0

GFSSE_con_sbcape_147.txt.gz
CAPE
1415 1749 2001 1953 1705 1716 1730 1700 1758 1971 2211 2272 2235 2403 2496 2543 2508 2539 2679 2853 3095 3141 2539 2337 2310 1963 2087 1722 1669 1741 1857 1990 2176 2287 2246 2086 1727 1871 1959 2210 2053 1626 2056
1568 1746 1992 2022 1860 1806 1783 1787 1853 2076 2336 2400 2285 2267 2449 2491 2465 2473 2503 2589 2753 2768 2229 2192 2194 2131 2349 1657 1546 1575 1669 1655 1898 1944 2044 2046 1881 1876 1786 1999 1911 1678 2092
1581 1714 1953 2019 1971 1927 1895 1944 2053 2291 2458 2434 2407 2282 2343 2532 2542 2418 2303 2395 2782 2793 2370 2534 2583 2534 2338 1701 1228 1337 1500 1584 1741 2008 2036 1411 1614 1765 1895 1940 2095 2209 2272
1597 1677 1829 2041 2079 1880 1790 1893 2079 2414 2444 2513 2481 2456 2341 2432 2564 2509 2357 2281 2585 2919 2454 2427 2463 2419 2097 1323 1009 1025 1164 1374 1488 1758 1511 1489 1479 1653 1481 1794 2064 2049 2101
1417 1580 1796 1891 2014 1954 1780 1824 2037 2234 2232 2287 2423 2541 2495 2427 2495 2572 2336 2392 2769 2738 2431 2365 2477 2394 1493 1055 851 805 857 934 1075 1315 910 1003 1030 1548 1452 1395 2146 2096 2140
1307 1415 1503 1696 1907 2080 2084 2059 2085 2078 2030 2084 2173 2482 2653 2615 2534 2438 2291 2361 2784 2991 2833 2612 2864 2244 1257 774 688 679 644 683 680 322 382 559 833 1208 2023 1703 1871 2205 2026
1303 1253 1251 1358 1550 1836 2231 2381 2394 2312 2153 2140 2204 2336 2486 2695 2702 2472 2187 2265 2537 2968 3330 3230 2802 2249 1402 812 674 636 515 427 406 175 166 453 531 1110 2000 1904 1497 2103 1884
51 25 80 697 1524 1466 1524 1770 2029 2231 2352 2437 2444 2398 2480 2563 2594 2587 2415 2202 2232 2379 2590 2588 2744 2430 2189 1466 924 630 494 368 372 228 163 290 463 804 1746 2240 1752 1584 1505
0 0 0 0 134 1037 1588 1532 1336 1467 1663 1924 2190 2365 2452 2501 2487 2477 2518 2466 2240 2154 2204 2290 2161 2165 2101 2048 1623 1090 697 509 301 121 176 203 610 854 1220 2452 1896 1568 1436
0 0 0 0 0 445 1069 1343 1512 1505 1301 1053 1073 1171 1348 1635 1914 1942 1932 1807 1893 2103 2010 1972 1882 1696 1749 1655 1678 1425 1159 782 397 167 131 128 575 1213 1590 2263 2052 1724 1484
0 0 0 0 0 9 545 707 1396 520 85 49 73 193 1308 1138 1063 1317 528 668 673 535 846 1169 1259 1289 1291 1045 1056 1195 1128 591 326 188 123 151 428 889 1665 1552 1808 1779 1491
0 0 0 0 0 0 30 104 206 62 0 0 0 0 0 2 25 251 208 411 300 197 387 351 372 629 751 897 911 643 631 445 332 270 231 251 570 997 1465 1879 1418 1459 1640
0 0 0 0 0 0 0 1 3 1 0 0 0 0 0 0 0 0 2 62 0 0 3 48 81 221 258 375 925 346 29 33 25 176 385 403 548 1049 1454 2016 2077 1649 1559
0 0 0 0 0 0 0 0 0 0 0 0 0 0 0 0 0 0 2 0 0 1 0 6 0 52 46 186 150 1 2 2 2 21 50 124 331 999 1329 2051 2221 1975 1501
0 0 0 0 0 0 0 0 0 0 0 0 0 0 0 0 0 0 0 0 0 0 0 2 0 3 44 59 0 1 0 26 103 42 78 11 127 438 1117 1509 2467 2286 1691
0 0 0 0 0 0 0 0 0 0 0 0 0 0 0 0 0 0 0 0 0 0 0 0 0 0 5 1 5 0 0 0 0 0 0 3 164 122 461 1550 2260 2518 2189
0 0 0 0 0 0 0 0 0 0 0 0 0 0 0 0 0 0 0 0 0 0 0 0 0 0 0 0 1 0 0 0 0 0 0 0 277 151 32 236 814 2041 1909
0 0 0 0 0 0 0 0 0 0 0 0 0 0 0 0 0 0 0 0 0 0 0 0 0 0 0 0 0 0 0 0 1 1 0 0 248 134 5 32 149 334 410
0 0 0 0 0 0 0 0 0 0 0 0 0 0 0 0 0 0 0 0 0 0 0 0 0 0 0 0 0 0 0 0 0 0 0 6 116 144 144 195 153 248 403
0 0 0 0 0 0 0 0 0 0 0 0 0 0 0 0 0 0 0 0 0 0 0 0 0 0 0 0 0 0 0 0 0 0 0 0 50 114 179 182 205 51 9
0 0 0 0 0 0 0 0 0 0 0 0 0 0 0 0 0 0 0 0 0 0 0 0 0 0 0 0 0 0 0 0 0 15 50 51 52 120 163 236 263 230 80
0 0 0 0 0 0 0 0 0 0 0 0 0 0 0 0 0 0 0 0 0 0 0 0 0 0 0 0 0 1 0 0 0 0 0 19 76 54 110 127 133 151 184
0 0 0 0 0 0 0 0 0 0 0 0 0 0 0 0 0 0 0 0 0 0 0 0 0 0 0 0 0 2 2 0 0 0 0 0 0 0 0 0 0 1 25
0 0 0 0 0 0 0 0 0 0 0 0 0 0 0 0 0 0 0 0 0 0 0 0 0 0 0 0 0 0 0 1 3 0 0 0 0 0 0 0 0 0 0
0 0 0 0 0 0 0 0 0 0 0 0 0 0 0 0 0 0 0 0 0 0 0 0 0 0 0 1 0 3 1 0 0 7 0 0 0 0 0 0 0 0 0
0 0 0 0 0 0 0 0 0 0 0 0 0 0 0 0 0 0 0 0 0 0 0 0 0 0 0 0 0 2 5 8 3 8 7 2 2 0 0 0 0 0 0

GFSSE_con_sbcape_150.txt.gz
CAPE
1241 1652 1872 1742 1745 1825 1714 1703 1873 2079 2202 2334 2485 2597 2658 2702 2672 2650 2714 2806 2954 2983 2607 2415 2213 2029 1988 1612 1595 1667 1857 2022 2069 2194 2256 2078 1939 2028 2019 2178 1869 1475 1872
1363 1655 1903 1815 1787 1883 1876 1811 1951 2240 2354 2367 2462 2505 2539 2553 2563 2627 2745 2942 3133 2987 2423 2345 2176 2100 2051 1478 1596 1681 1657 1723 1847 1870 2171 1896 1717 1778 1938 1906 1634 1516 1819
1504 1679 1872 1841 1871 1828 1925 1974 2177 2467 2469 2388 2337 2490 2570 2606 2575 2487 2473 2556 2761 2704 2205 2201 2250 2375 2335 1516 1265 1495 1493 1536 1763 1814 1989 1377 1415 1842 1755 1857 1796 1825 1782
1462 1566 1854 1912 1851 1801 1763 1903 2166 2472 2464 2527 2412 2346 2548 2591 2524 2382 2225 2378 2812 2884 2451 2561 2561 2565 2074 1296 1008 1201 1304 1342 1547 1857 1453 1353 1522 1677 1502 1612 1804 1798 1787
1280 1466 1661 1807 1802 1746 1731 1822 2048 2147 2199 2317 2434 2467 2406 2556 2606 2540 2263 2256 2686 2752 2455 2399 2463 2425 1700 1111 819 864 908 976 1169 1391 907 1080 1042 1328 1776 1889 1768 2108 1922
1103 1080 1076 1442 1822 1981 1932 1832 1912 1907 1902 1994 2204 2536 2595 2513 2537 2502 2232 2412 2793 2767 2566 2479 2848 2334 1328 885 751 693 692 625 595 301 554 720 915 1154 1638 1681 1745 1705 2010
326 236 509 1052 1302 1592 2099 2210 2179 2052 1914 1942 2055 2224 2409 2598 2565 2366 2131 2232 2526 2990 3175 3060 2763 2249 1509 919 678 588 497 418 313 77 70 138 426 1036 1637 2235 1836 1578 1566
0 0 0 305 902 1219 1336 1244 1220 1378 1558 1764 1986 2189 2410 2433 2454 2491 2442 2174 2114 2208 2362 2296 2480 2271 1926 1375 939 641 490 365 335 116 47 68 251 920 1336 2392 1860 1551 1611
0 0 0 0 269 914 1076 1303 1247 1059 894 990 947 1175 1302 1574 1803 1960 1945 1793 1816 1981 2051 1997 1881 1621 1845 1906 1655 1273 790 514 240 106 85 73 335 1040 1362 2064 1607 1502 1326
0 0 0 0 4 374 755 970 308 154 131 133 255 341 733 980 1191 1035 937 889 762 928 1086 1285 1378 1493 1390 1254 1494 1509 1238 906 509 219 148 89 330 786 1463 1715 1786 1554 1428
0 0 0 0 0 23 281 360 21 0 0 0 0 0 0 0 27 263 397 294 136 317 414 438 546 612 783 973 988 961 1207 822 729 386 197 158 479 895 1191 1833 1952 1738 1494
0 0 0 0 0 0 36 1 0 0 0 0 0 0 0 0 0 1 70 1 0 8 72 120 120 239 429 705 866 768 674 822 629 489 340 297 662 1096 1272 1819 2168 1884 1777
0 0 0 0 0 0 0 0 0 0 0 0 0 0 0 0 0 2 0 0 1 1 2 1 1 25 42 150 570 602 688 694 321 188 216 194 794 1342 1487 1997 2015 1948 1709
0 0 0 0 0 0 0 0 0 0 0 0 0 0 0 0 0 0 0 0 0 0 0 0 0 2 0 18 333 413 99 18 5 87 164 266 217 844 1586 1748 2254 2264 1613
0 0 0 0 0 0 0 0 0 0 0 0 0 0 0 0 0 0 0 0 0 0 0 0 0 0 1 1 22 48 0 0 70 214 183 38 12 180 424 1500 1964 2489 2160
0 0 0 0 0 0 0 0 0 0 0 0 0 0 0 0 0 0 0 0 0 0 0 0 0 0 0 0 4 58 64 22 0 4 23 15 0 71 300 597 1177 1913 2169
0 0 0 0 0 0 0 0 0 0 0 0 0 0 0 0 0 0 0 0 0 0 0 0 0 0 0 0 0 0 2 2 0 0 0 0 0 18 258 204 373 662 1102
0 0 0 0 0 0 0 0 0 0 0 0 0 0 0 0 0 0 0 0 0 0 0 0 0 0 0 0 0 0 0 0 2 1 0 2 1 39 231 199 41 183 317
0 0 0 0 0 0 0 0 0 0 0 0 0 0 0 0 0 0 0 0 0 0 0 0 0 0 0 0 0 0 0 0 0 0 1 1 0 3 134 152 155 45 69
0 0 0 0 0 0 0 0 0 0 0 0 0 0 0 0 0 0 0 0 0 0 0 0 0 0 0 0 0 0 0 0 0 0 0 0 0 21 75 114 161 111 28
0 0 0 0 0 0 0 0 0 0 0 0 0 0 0 0 0 0 0 0 0 0 0 0 0 0 0 0 0 0 0 0 0 0 1 0 5 48 5 9 10 19 113
0 0 0 0 0 0 0 0 0 0 0 0 0 0 0 0 0 0 0 0 0 0 0 0 0 0 0 0 0 1 0 0 0 0 0 0 0 0 0 0 0 0 0
0 0 0 0 0 0 0 0 0 0 0 0 0 0 0 0 0 0 0 0 0 0 0 0 0 0 0 0 0 0 1 0 0 0 0 0 0 0 0 0 0 0 0
0 0 0 0 0 0 0 0 0 0 0 0 0 0 0 0 0 0 0 0 0 0 0 0 0 0 0 1 0 0 0 1 3 0 0 0 0 0 0 0 0 0 0
0 0 0 0 0 0 0 0 0 0 0 0 0 0 0 0 0 0 0 0 0 0 0 0 0 0 0 0 2 4 3 0 0 4 3 0 0 0 0 0 0 0 0
0 0 0 0 0 0 0 0 0 0 0 0 0 0 0 0 0 0 0 0 0 0 0 0 0 0 0 0 0 0 1 3 1 3 4 2 2 0 0 0 0 0 0